Location: Kalberh�ni
(46.4610°N, 7.2453°E)
Time: 02:30:00
(UTC+00:00)

Cosmos 1174 - Pass Details

Date: 20 June 2021
Orbit: 374 x 1140 km, 66.1° (Epoch: 25 July)

Event Time Altitude Azimuth Distance (km) Brightness Sun altitude
Exits shadow 23:14:00 35° 203° (SSW) 1,288 5.2 -20.0°
Maximum altitude 23:16:23 78° 123° (ESE) 782 4.4 -20.0°
Drops below altitude 10° 23:21:05 10° 37° (NE) 2,060 7.4 -20.0°
Sets 23:23:08 0° 36° (NE) 2,861 8.3 -20.1°
